Station History

Weather Underground - logo

Station Historical Data
Daily Summary for October 2, 2017 Units:  English    Metric   Both
« Previous Day
Next Day »
Daily Weekly Monthly Yearly Custom
  High: Low: Average:
Temperature: 77.9 °F 48.2 °F 62.4 °F
Dew Point: 51.0 °F 38.8 °F 44.4 °F
Humidity: 79 % 26 % 56 %
Wind Speed: 6.9 mph 0.0 mph 1 mph
Wind Gust: 6.9 mph - -
Wind:- - SSE
Pressure: 29.84 in 29.73 in -
Precipitation: 0.00 in    
Historical Graphs
 
 
Tabular Data for October 2, 2017
Time Temperature Dew Point Pressure Wind Wind Speed Wind Gust Humidity Rainfall Rate (Hourly)
00:00 57.5 °F 45.8 °F 29.73 in Calm     65 % 0.00 in
00:05 57.0 °F 46.1 °F 29.73 in SE 1.2 mph   67 % 0.00 in
00:10 56.6 °F 46.2 °F 29.73 in Calm     68 % 0.00 in
00:15 56.1 °F 46.1 °F 29.73 in ESE 1.2 mph   69 % 0.00 in
00:20 55.7 °F 46.1 °F 29.73 in Calm     70 % 0.00 in
00:30 55.2 °F 46.0 °F 29.73 in Calm     71 % 0.00 in
00:35 54.8 °F 46.3 °F 29.73 in Calm     73 % 0.00 in
00:40 54.5 °F 46.0 °F 29.73 in Calm     73 % 0.00 in
00:45 54.4 °F 46.3 °F 29.74 in Calm     74 % 0.00 in
00:50 54.2 °F 46.1 °F 29.74 in SE 1.0 mph 1.0 mph 74 % 0.00 in
00:55 54.0 °F 45.9 °F 29.74 in Calm     74 % 0.00 in
01:00 53.7 °F 46.0 °F 29.74 in Calm     75 % 0.00 in
01:05 53.7 °F 46.0 °F 29.74 in SE 1.0 mph 1.0 mph 75 % 0.00 in
01:10 53.6 °F 45.9 °F 29.74 in Calm     75 % 0.00 in
01:15 53.4 °F 45.7 °F 29.74 in Calm     75 % 0.00 in
01:20 53.3 °F 45.9 °F 29.74 in Calm     76 % 0.00 in
01:25 53.4 °F 45.7 °F 29.74 in Calm     75 % 0.00 in
01:30 53.3 °F 45.6 °F 29.74 in Calm     75 % 0.00 in
01:35 53.4 °F 45.7 °F 29.74 in Calm     75 % 0.00 in
01:40 53.4 °F 45.7 °F 29.74 in Calm     75 % 0.00 in
01:45 53.4 °F 45.3 °F 29.74 in Calm     74 % 0.00 in
01:50 53.3 °F 45.6 °F 29.74 in Calm   0.1 mph 75 % 0.00 in
01:55 53.2 °F 45.5 °F 29.75 in Calm     75 % 0.00 in
02:00 53.1 °F 45.7 °F 29.75 in SE 1.2 mph   76 % 0.00 in
02:05 53.0 °F 45.3 °F 29.75 in SE 1.2 mph 1.2 mph 75 % 0.00 in
02:10 53.0 °F 45.3 °F 29.75 in Calm     75 % 0.00 in
02:15 52.9 °F 45.2 °F 29.75 in Calm     75 % 0.00 in
02:20 52.8 °F 45.1 °F 29.75 in Calm     75 % 0.00 in
02:25 52.7 °F 45.0 °F 29.75 in Calm     75 % 0.00 in
02:30 52.6 °F 44.9 °F 29.75 in Calm     75 % 0.00 in
02:31 52.6 °F 44.9 °F 29.75 in Calm     75 % 0.00 in
02:36 52.6 °F 44.9 °F 29.75 in Calm     75 % 0.00 in
02:41 52.6 °F 44.9 °F 29.75 in Calm     75 % 0.00 in
02:47 52.5 °F 44.8 °F 29.75 in Calm     75 % 0.00 in
02:51 52.4 °F 44.7 °F 29.75 in Calm     75 % 0.00 in
02:56 52.4 °F 44.7 °F 29.75 in Calm     75 % 0.00 in
03:02 52.5 °F 44.8 °F 29.75 in Calm     75 % 0.00 in
03:07 52.3 °F 44.6 °F 29.75 in Calm     75 % 0.00 in
03:12 52.2 °F 44.2 °F 29.75 in Calm     74 % 0.00 in
03:17 52.2 °F 44.5 °F 29.75 in Calm     75 % 0.00 in
03:22 52.1 °F 44.4 °F 29.75 in Calm     75 % 0.00 in
03:27 52.0 °F 44.7 °F 29.75 in Calm     76 % 0.00 in
03:28 51.9 °F 44.6 °F 29.75 in Calm     76 % 0.00 in
03:33 51.6 °F 44.3 °F 29.75 in Calm     76 % 0.00 in
03:38 51.4 °F 44.1 °F 29.75 in Calm     76 % 0.00 in
03:43 51.0 °F 44.4 °F 29.75 in Calm     78 % 0.00 in
03:48 50.8 °F 44.2 °F 29.75 in Calm     78 % 0.00 in
03:53 50.8 °F 44.2 °F 29.75 in Calm     78 % 0.00 in
03:58 50.8 °F 44.2 °F 29.75 in Calm     78 % 0.00 in
04:03 50.6 °F 44.0 °F 29.75 in Calm     78 % 0.00 in
04:08 50.5 °F 43.9 °F 29.76 in Calm     78 % 0.00 in
04:13 50.5 °F 44.2 °F 29.76 in Calm     79 % 0.00 in
04:18 50.3 °F 44.0 °F 29.76 in Calm     79 % 0.00 in
04:23 50.2 °F 43.6 °F 29.76 in Calm     78 % 0.00 in
04:28 50.4 °F 43.5 °F 29.76 in Calm     77 % 0.00 in
04:33 50.6 °F 43.3 °F 29.76 in Calm     76 % 0.00 in
04:38 50.6 °F 43.3 °F 29.76 in Calm   0.1 mph 76 % 0.00 in
04:43 50.6 °F 43.3 °F 29.76 in SE 1.2 mph 1.2 mph 76 % 0.00 in
04:48 50.6 °F 43.0 °F 29.76 in SE 1.2 mph 1.2 mph 75 % 0.00 in
04:53 50.6 °F 43.0 °F 29.76 in SE 1.2 mph 1.2 mph 75 % 0.00 in
04:58 50.5 °F 42.9 °F 29.77 in Calm     75 % 0.00 in
05:03 50.5 °F 42.9 °F 29.77 in Calm     75 % 0.00 in
05:07 50.4 °F 42.8 °F 29.77 in Calm     75 % 0.00 in
05:12 50.1 °F 42.8 °F 29.77 in Calm     76 % 0.00 in
05:17 49.9 °F 43.0 °F 29.77 in Calm     77 % 0.00 in
05:22 49.7 °F 42.8 °F 29.77 in Calm     77 % 0.00 in
05:27 49.4 °F 42.8 °F 29.77 in Calm     78 % 0.00 in
05:32 49.2 °F 42.6 °F 29.77 in SE 1.2 mph   78 % 0.00 in
05:37 49.0 °F 42.8 °F 29.77 in Calm     79 % 0.00 in
05:42 48.9 °F 42.7 °F 29.77 in Calm     79 % 0.00 in
05:47 48.7 °F 42.5 °F 29.77 in Calm     79 % 0.00 in
05:52 48.6 °F 42.4 °F 29.78 in Calm     79 % 0.00 in
05:57 48.5 °F 42.3 °F 29.78 in Calm     79 % 0.00 in
06:02 48.5 °F 42.3 °F 29.78 in SE 1.2 mph   79 % 0.00 in
06:07 48.5 °F 42.3 °F 29.78 in Calm     79 % 0.00 in
06:12 48.4 °F 42.2 °F 29.78 in Calm     79 % 0.00 in
06:17 48.2 °F 42.0 °F 29.78 in Calm     79 % 0.00 in
06:22 48.3 °F 41.8 °F 29.78 in Calm     78 % 0.00 in
06:27 48.6 °F 42.0 °F 29.78 in SE 1.2 mph   78 % 0.00 in
06:32 48.6 °F 42.0 °F 29.79 in Calm     78 % 0.00 in
06:37 48.5 °F 42.0 °F 29.79 in Calm     78 % 0.00 in
06:42 48.5 °F 42.0 °F 29.79 in Calm     78 % 0.00 in
06:47 48.4 °F 41.9 °F 29.79 in Calm     78 % 0.00 in
06:52 48.3 °F 41.8 °F 29.79 in Calm     78 % 0.00 in
06:58 48.3 °F 41.8 °F 29.79 in Calm     78 % 0.00 in
07:03 48.2 °F 41.7 °F 29.79 in Calm     78 % 0.00 in
07:08 48.2 °F 41.3 °F 29.80 in SE 1.2 mph   77 % 0.00 in
07:13 48.6 °F 41.4 °F 29.80 in Calm     76 % 0.00 in
07:18 48.7 °F 41.8 °F 29.80 in Calm     77 % 0.00 in
07:23 48.7 °F 41.8 °F 29.80 in Calm     77 % 0.00 in
07:28 48.7 °F 41.8 °F 29.80 in Calm     77 % 0.00 in
07:33 49.0 °F 41.8 °F 29.81 in Calm     76 % 0.00 in
07:38 49.6 °F 42.0 °F 29.81 in Calm     75 % 0.00 in
07:43 50.1 °F 42.1 °F 29.81 in Calm     74 % 0.00 in
07:48 50.7 °F 42.4 °F 29.81 in SE 1.0 mph   73 % 0.00 in
07:53 51.1 °F 42.4 °F 29.81 in SE 1.2 mph 1.2 mph 72 % 0.00 in
07:58 51.7 °F 42.2 °F 29.81 in SE 1.2 mph   70 % 0.00 in
08:03 52.4 °F 42.9 °F 29.81 in Calm     70 % 0.00 in
08:08 53.8 °F 43.5 °F 29.81 in East 1.2 mph 1.2 mph 68 % 0.00 in
08:13 55.2 °F 43.6 °F 29.81 in ESE 1.2 mph 1.2 mph 65 % 0.00 in
08:18 56.5 °F 44.0 °F 29.82 in Calm     63 % 0.00 in
08:23 57.8 °F 44.0 °F 29.82 in SE 1.2 mph   60 % 0.00 in
08:28 58.8 °F 44.5 °F 29.82 in ESE 1.2 mph 1.2 mph 59 % 0.00 in
08:33 59.6 °F 43.9 °F 29.82 in SE 2.3 mph 2.3 mph 56 % 0.00 in
08:38 60.3 °F 44.1 °F 29.82 in SSE 1.2 mph   55 % 0.00 in
08:43 61.0 °F 43.7 °F 29.82 in SE 3.5 mph 3.5 mph 53 % 0.00 in
08:48 61.6 °F 44.3 °F 29.82 in ESE 3.0 mph 3.0 mph 53 % 0.00 in
08:53 62.1 °F 43.7 °F 29.82 in East 2.3 mph 2.3 mph 51 % 0.00 in
08:58 62.6 °F 43.2 °F 29.82 in South 3.5 mph 3.5 mph 49 % 0.00 in
09:00 62.8 °F 43.3 °F 29.82 in ENE 3.5 mph 3.5 mph 49 % 0.00 in
09:05 63.6 °F 43.5 °F 29.82 in South 1.2 mph 1.2 mph 48 % 0.00 in
09:10 64.2 °F 42.4 °F 29.82 in South 3.0 mph 3.0 mph 45 % 0.00 in
09:15 64.5 °F 42.7 °F 29.82 in NE 3.5 mph 3.5 mph 45 % 0.00 in
09:20 65.0 °F 43.1 °F 29.82 in South 3.5 mph 3.5 mph 45 % 0.00 in
09:21 65.1 °F 42.0 °F 29.82 in SSE 3.5 mph 3.5 mph 43 % 0.00 in
09:26 65.7 °F 42.6 °F 29.82 in South 3.5 mph 3.5 mph 43 % 0.00 in
09:31 66.1 °F 43.5 °F 29.83 in South 2.3 mph 2.3 mph 44 % 0.00 in
09:36 66.5 °F 43.3 °F 29.83 in ESE 2.3 mph 2.3 mph 43 % 0.00 in
09:42 66.9 °F 43.0 °F 29.83 in South 1.2 mph 1.2 mph 42 % 0.00 in
09:47 67.0 °F 42.5 °F 29.83 in NW 1.2 mph 1.2 mph 41 % 0.00 in
09:52 67.0 °F 43.1 °F 29.84 in North 2.0 mph   42 % 0.00 in
09:57 67.3 °F 42.1 °F 29.84 in West 2.0 mph 2.0 mph 40 % 0.00 in
10:02 67.5 °F 43.0 °F 29.84 in South 3.5 mph 3.5 mph 41 % 0.00 in
10:07 67.7 °F 40.5 °F 29.84 in WSW 4.6 mph 4.6 mph 37 % 0.00 in
10:12 67.8 °F 41.9 °F 29.84 in SE 3.5 mph 3.5 mph 39 % 0.00 in
10:17 68.2 °F 41.6 °F 29.84 in ESE 2.0 mph 2.0 mph 38 % 0.00 in
10:22 68.4 °F 43.1 °F 29.84 in SSW 1.2 mph 1.2 mph 40 % 0.00 in
10:27 68.8 °F 42.8 °F 29.84 in NE 4.6 mph 4.6 mph 39 % 0.00 in
10:32 69.0 °F 42.3 °F 29.84 in South 2.3 mph 2.3 mph 38 % 0.00 in
10:37 68.9 °F 42.2 °F 29.84 in NE 3.5 mph 3.5 mph 38 % 0.00 in
10:42 69.3 °F 43.3 °F 29.84 in NW 1.2 mph 1.2 mph 39 % 0.00 in
10:47 69.8 °F 43.0 °F 29.84 in North 1.2 mph 1.2 mph 38 % 0.00 in
10:52 69.9 °F 43.1 °F 29.84 in South 3.5 mph 3.5 mph 38 % 0.00 in
10:57 69.7 °F 42.9 °F 29.84 in SE 3.5 mph   38 % 0.00 in
11:02 70.2 °F 44.1 °F 29.83 in South 2.3 mph 2.3 mph 39 % 0.00 in
11:07 70.7 °F 42.4 °F 29.83 in South 4.6 mph 4.6 mph 36 % 0.00 in
11:12 70.9 °F 44.0 °F 29.83 in East 3.0 mph 3.0 mph 38 % 0.00 in
11:17 71.4 °F 43.0 °F 29.83 in SSE 4.6 mph 4.6 mph 36 % 0.00 in
11:22 71.1 °F 42.8 °F 29.83 in SSW 2.3 mph 2.3 mph 36 % 0.00 in
11:27 71.5 °F 42.4 °F 29.83 in WNW 3.5 mph 3.5 mph 35 % 0.00 in
11:32 71.5 °F 43.1 °F 29.83 in SSE 3.5 mph 3.5 mph 36 % 0.00 in
11:37 71.6 °F 44.6 °F 29.83 in SSE 3.0 mph 3.0 mph 38 % 0.00 in
11:42 71.7 °F 42.6 °F 29.83 in South 3.5 mph 3.5 mph 35 % 0.00 in
11:47 72.0 °F 43.6 °F 29.83 in NW 3.5 mph 3.5 mph 36 % 0.00 in
11:52 72.4 °F 46.0 °F 29.83 in SSW 1.2 mph 1.2 mph 39 % 0.00 in
11:57 72.9 °F 42.9 °F 29.83 in SSW 3.5 mph 3.5 mph 34 % 0.00 in
12:02 73.2 °F 43.9 °F 29.83 in ESE 3.5 mph 3.5 mph 35 % 0.00 in
12:07 73.7 °F 44.3 °F 29.83 in NW 1.2 mph 1.2 mph 35 % 0.00 in
12:12 73.2 °F 43.1 °F 29.83 in SE 4.6 mph 4.6 mph 34 % 0.00 in
12:17 73.5 °F 43.4 °F 29.82 in East 4.6 mph 4.6 mph 34 % 0.00 in
12:23 73.5 °F 44.2 °F 29.82 in North 3.5 mph 3.5 mph 35 % 0.00 in
12:28 74.1 °F 43.1 °F 29.82 in SW 3.5 mph 3.5 mph 33 % 0.00 in
12:33 74.2 °F 43.2 °F 29.82 in South 3.5 mph 3.5 mph 33 % 0.00 in
12:38 74.3 °F 43.3 °F 29.82 in SSW 2.3 mph 2.3 mph 33 % 0.00 in
12:43 74.7 °F 44.5 °F 29.81 in ENE 2.3 mph 2.3 mph 34 % 0.00 in
12:48 75.2 °F 43.3 °F 29.81 in ESE 2.0 mph 2.0 mph 32 % 0.00 in
12:53 74.8 °F 41.3 °F 29.81 in NW 3.5 mph 3.5 mph 30 % 0.00 in
12:58 74.6 °F 43.6 °F 29.81 in SSE 1.2 mph   33 % 0.00 in
13:03 75.1 °F 44.0 °F 29.81 in WNW 2.3 mph 2.3 mph 33 % 0.00 in
13:08 75.9 °F 43.9 °F 29.81 in ESE 1.2 mph 1.2 mph 32 % 0.00 in
13:13 76.1 °F 43.3 °F 29.80 in NNW 2.3 mph 2.3 mph 31 % 0.00 in
13:18 76.0 °F 44.0 °F 29.80 in SW 2.3 mph 2.3 mph 32 % 0.00 in
13:23 76.3 °F 42.6 °F 29.80 in SE 2.3 mph 2.3 mph 30 % 0.00 in
13:28 75.9 °F 42.2 °F 29.80 in East 5.8 mph 5.8 mph 30 % 0.00 in
13:33 75.8 °F 44.6 °F 29.79 in SSE 3.0 mph 3.0 mph 33 % 0.00 in
13:38 76.0 °F 42.3 °F 29.79 in SW 5.8 mph 5.8 mph 30 % 0.00 in
13:43 76.1 °F 43.3 °F 29.79 in North 5.8 mph 5.8 mph 31 % 0.00 in
13:48 76.8 °F 44.7 °F 29.78 in NW 1.2 mph 1.2 mph 32 % 0.00 in
13:53 77.1 °F 43.3 °F 29.78 in South 2.3 mph 2.3 mph 30 % 0.00 in
13:58 77.3 °F 44.3 °F 29.78 in SSW 2.3 mph 2.3 mph 31 % 0.00 in
14:03 77.4 °F 41.7 °F 29.78 in South 3.5 mph 3.5 mph 28 % 0.00 in
14:08 77.7 °F 43.8 °F 29.78 in SSE 3.5 mph 3.5 mph 30 % 0.00 in
14:13 77.7 °F 43.8 °F 29.78 in ESE 3.5 mph 3.5 mph 30 % 0.00 in
14:18 77.4 °F 42.6 °F 29.77 in East 3.5 mph 3.5 mph 29 % 0.00 in
14:23 77.3 °F 41.6 °F 29.77 in West 2.3 mph 2.3 mph 28 % 0.00 in
14:28 77.7 °F 42.9 °F 29.77 in SSE 3.5 mph 3.5 mph 29 % 0.00 in
14:33 77.4 °F 41.7 °F 29.76 in SSE 2.3 mph 2.3 mph 28 % 0.00 in
14:39 77.3 °F 41.6 °F 29.76 in South 6.9 mph 6.9 mph 28 % 0.00 in
14:44 77.4 °F 43.5 °F 29.76 in ESE 2.3 mph 2.3 mph 30 % 0.00 in
14:49 77.7 °F 42.9 °F 29.76 in East 1.2 mph 1.2 mph 29 % 0.00 in
14:54 77.6 °F 43.7 °F 29.76 in SE 2.3 mph 2.3 mph 30 % 0.00 in
14:59 77.9 °F 42.2 °F 29.76 in East 1.2 mph 1.2 mph 28 % 0.00 in
15:04 77.9 °F 42.2 °F 29.76 in WNW 1.2 mph 1.2 mph 28 % 0.00 in
15:09 77.4 °F 42.6 °F 29.76 in ESE 1.2 mph 1.2 mph 29 % 0.00 in
15:14 77.7 °F 43.8 °F 29.75 in Calm     30 % 0.00 in
15:19 77.5 °F 43.6 °F 29.75 in NW 1.2 mph 1.2 mph 30 % 0.00 in
15:24 77.2 °F 41.6 °F 29.75 in NNE 1.2 mph 1.2 mph 28 % 0.00 in
15:29 77.3 °F 41.6 °F 29.75 in SE 2.3 mph 2.3 mph 28 % 0.00 in
15:34 77.5 °F 40.9 °F 29.75 in SSE 4.6 mph 4.6 mph 27 % 0.00 in
15:39 77.5 °F 40.9 °F 29.75 in SE 1.2 mph 1.2 mph 27 % 0.00 in
15:44 77.4 °F 41.7 °F 29.75 in SE 1.2 mph 1.2 mph 28 % 0.00 in
15:49 77.3 °F 41.6 °F 29.75 in SSW 1.2 mph 1.2 mph 28 % 0.00 in
15:54 77.4 °F 41.7 °F 29.75 in South 1.2 mph 1.2 mph 28 % 0.00 in
15:59 77.2 °F 40.6 °F 29.75 in WNW 1.2 mph 1.2 mph 27 % 0.00 in
16:04 76.6 °F 39.1 °F 29.74 in Calm     26 % 0.00 in
16:09 76.7 °F 42.0 °F 29.74 in SSE 2.3 mph 2.3 mph 29 % 0.00 in
16:14 76.6 °F 41.0 °F 29.74 in NNW 2.3 mph 2.3 mph 28 % 0.00 in
16:19 76.4 °F 41.8 °F 29.74 in Calm     29 % 0.00 in
16:24 76.3 °F 42.6 °F 29.74 in Calm     30 % 0.00 in
16:29 76.3 °F 42.6 °F 29.74 in South 1.0 mph 1.0 mph 30 % 0.00 in
16:34 76.1 °F 42.4 °F 29.74 in SE 2.3 mph   30 % 0.00 in
16:39 76.0 °F 42.3 °F 29.74 in SSE 1.2 mph 1.2 mph 30 % 0.00 in
16:44 75.7 °F 40.3 °F 29.74 in Calm     28 % 0.00 in
16:49 75.5 °F 40.1 °F 29.73 in SSW 1.2 mph 1.2 mph 28 % 0.00 in
16:54 75.2 °F 38.9 °F 29.73 in Calm   0.2 mph 27 % 0.00 in
16:59 75.1 °F 38.8 °F 29.73 in WNW 1.2 mph 1.2 mph 27 % 0.00 in
17:04 74.8 °F 41.3 °F 29.73 in Calm     30 % 0.00 in
17:09 74.8 °F 41.3 °F 29.73 in South 1.2 mph   30 % 0.00 in
17:14 74.6 °F 42.8 °F 29.73 in SSE 1.2 mph   32 % 0.00 in
17:19 74.5 °F 43.5 °F 29.73 in Calm     33 % 0.00 in
17:24 74.4 °F 42.6 °F 29.73 in Calm     32 % 0.00 in
17:30 74.2 °F 42.4 °F 29.73 in WNW 1.0 mph 1.0 mph 32 % 0.00 in
17:35 74.1 °F 43.1 °F 29.73 in South 1.2 mph 1.2 mph 33 % 0.00 in
17:40 73.9 °F 44.5 °F 29.73 in Calm     35 % 0.00 in
17:45 73.6 °F 44.2 °F 29.73 in Calm     35 % 0.00 in
17:50 73.2 °F 44.6 °F 29.73 in Calm     36 % 0.00 in
17:55 72.9 °F 45.8 °F 29.73 in Calm     38 % 0.00 in
18:00 72.4 °F 43.2 °F 29.73 in Calm     35 % 0.00 in
18:05 72.1 °F 45.1 °F 29.73 in Calm     38 % 0.00 in
18:10 71.7 °F 47.4 °F 29.73 in Calm     42 % 0.00 in
18:15 71.2 °F 46.3 °F 29.73 in Calm     41 % 0.00 in
18:20 70.7 °F 48.3 °F 29.73 in Calm     45 % 0.00 in
18:25 70.2 °F 49.0 °F 29.73 in Calm     47 % 0.00 in
18:30 69.6 °F 48.5 °F 29.73 in Calm     47 % 0.00 in
18:35 68.9 °F 48.9 °F 29.73 in Calm     49 % 0.00 in
18:40 68.2 °F 48.3 °F 29.73 in Calm     49 % 0.00 in
18:45 67.8 °F 49.5 °F 29.73 in Calm     52 % 0.00 in
18:50 67.3 °F 50.6 °F 29.73 in Calm     55 % 0.00 in
18:56 66.6 °F 48.9 °F 29.73 in Calm     53 % 0.00 in
19:01 66.2 °F 49.6 °F 29.73 in Calm     55 % 0.00 in
19:06 65.8 °F 48.7 °F 29.73 in Calm     54 % 0.00 in
19:11 65.4 °F 49.8 °F 29.73 in Calm     57 % 0.00 in
19:16 65.1 °F 49.0 °F 29.73 in Calm     56 % 0.00 in
19:21 64.9 °F 48.8 °F 29.74 in Calm     56 % 0.00 in
19:26 64.6 °F 49.0 °F 29.73 in Calm     57 % 0.00 in
19:31 64.1 °F 50.8 °F 29.74 in WNW 1.2 mph 1.2 mph 62 % 0.00 in
19:34 63.6 °F 50.3 °F 29.74 in Calm     62 % 0.00 in
19:39 63.3 °F 49.6 °F 29.74 in Calm     61 % 0.00 in
19:44 63.1 °F 49.9 °F 29.74 in Calm     62 % 0.00 in
19:49 62.9 °F 51.0 °F 29.74 in Calm     65 % 0.00 in
19:54 62.7 °F 49.9 °F 29.74 in Calm     63 % 0.00 in
19:59 62.6 °F 50.7 °F 29.74 in Calm     65 % 0.00 in
20:04 62.4 °F 50.1 °F 29.74 in Calm     64 % 0.00 in
20:09 62.1 °F 50.2 °F 29.74 in Calm     65 % 0.00 in
20:15 61.9 °F 50.0 °F 29.75 in Calm     65 % 0.00 in
20:20 61.4 °F 48.3 °F 29.75 in Calm     62 % 0.00 in
20:22 61.3 °F 48.2 °F 29.75 in Calm     62 % 0.00 in
20:26 61.4 °F 47.8 °F 29.75 in Calm     61 % 0.00 in
20:28 61.6 °F 48.0 °F 29.75 in Calm     61 % 0.00 in
20:38 62.1 °F 47.1 °F 29.75 in Calm     58 % 0.00 in
20:43 62.2 °F 46.8 °F 29.75 in Calm     57 % 0.00 in
20:48 62.5 °F 47.1 °F 29.75 in Calm     57 % 0.00 in
20:53 62.4 °F 46.5 °F 29.75 in Calm     56 % 0.00 in
20:58 62.3 °F 46.4 °F 29.75 in Calm     56 % 0.00 in
21:03 62.0 °F 48.0 °F 29.75 in Calm     60 % 0.00 in
21:08 61.5 °F 47.9 °F 29.75 in Calm     61 % 0.00 in
21:13 61.1 °F 48.8 °F 29.75 in Calm     64 % 0.00 in
21:18 60.7 °F 47.6 °F 29.75 in Calm     62 % 0.00 in
21:23 60.4 °F 47.7 °F 29.75 in Calm     63 % 0.00 in
21:28 60.0 °F 46.5 °F 29.75 in Calm     61 % 0.00 in
21:33 59.6 °F 46.1 °F 29.75 in Calm     61 % 0.00 in
21:38 59.3 °F 46.3 °F 29.75 in Calm     62 % 0.00 in
21:43 59.2 °F 46.2 °F 29.75 in Calm     62 % 0.00 in
21:48 59.1 °F 45.7 °F 29.75 in Calm     61 % 0.00 in
21:53 59.2 °F 45.3 °F 29.75 in Calm     60 % 0.00 in
21:58 59.3 °F 45.4 °F 29.75 in Calm     60 % 0.00 in
22:03 59.1 °F 45.7 °F 29.75 in Calm     61 % 0.00 in
22:08 59.0 °F 46.0 °F 29.75 in Calm     62 % 0.00 in
22:13 58.9 °F 44.6 °F 29.75 in Calm     59 % 0.00 in
22:18 58.8 °F 44.5 °F 29.75 in Calm     59 % 0.00 in
22:23 58.6 °F 45.2 °F 29.75 in Calm     61 % 0.00 in
22:28 58.1 °F 43.8 °F 29.75 in Calm     59 % 0.00 in
22:33 58.4 °F 44.1 °F 29.75 in Calm     59 % 0.00 in
22:38 59.0 °F 44.2 °F 29.75 in Calm     58 % 0.00 in
22:43 59.1 °F 46.1 °F 29.75 in Calm     62 % 0.00 in
22:48 58.4 °F 46.7 °F 29.75 in Calm     65 % 0.00 in
22:53 57.0 °F 46.5 °F 29.75 in Calm     68 % 0.00 in
22:58 56.1 °F 46.8 °F 29.75 in Calm     71 % 0.00 in
23:03 55.7 °F 46.8 °F 29.75 in Calm     72 % 0.00 in
23:08 55.5 °F 47.0 °F 29.75 in Calm     73 % 0.00 in
23:13 55.3 °F 47.2 °F 29.75 in Calm     74 % 0.00 in
23:18 55.2 °F 47.1 °F 29.75 in Calm     74 % 0.00 in
23:23 55.0 °F 46.9 °F 29.75 in Calm     74 % 0.00 in
23:28 54.9 °F 47.1 °F 29.75 in Calm     75 % 0.00 in
23:33 54.9 °F 47.1 °F 29.75 in Calm     75 % 0.00 in
23:38 54.9 °F 47.1 °F 29.75 in Calm     75 % 0.00 in
23:43 54.6 °F 46.8 °F 29.75 in Calm     75 % 0.00 in
23:48 54.5 °F 47.1 °F 29.75 in Calm     76 % 0.00 in
23:53 54.3 °F 46.5 °F 29.75 in Calm     75 % 0.00 in
23:59 54.3 °F 46.9 °F 29.75 in Calm     76 % 0.00 in
Park Place, Exeter, Tulare County, California, USA
Compliments of Weather Underground - 2.75 mb